Location: Antoign�
(47.0844°N, 0.1131°W)
Time: 22:18:04
(UTC+00:00)

Cosmos 2369 Rocket - Pass Details

Date: 03 March 2021
Orbit: 829 x 852 km, 71.0° (Epoch: 14 April)

Event Time Altitude Azimuth Distance (km) Brightness Sun altitude
Rises 21:28:31 0° 338° (NNW) 3,383 6.1 -36.4°
Reaches altitude 10° 21:31:22 10° 351° (N) 2,447 5.0 -36.8°
Enters shadow 21:32:58 17° 3° (N) 2,004 4.4 -37.0°
